Regional Weather Roundup
Issued by NWS

Home | Current Version | Previous Version | Graphics & Text | Print | Product List | Glossary On
Versions: 1 2 3 4 5 6 7 8 9 10 11 12 13 14 15 16 17 18 19 20 21 22 23 24 25 26 27 28 29 30 31 32 33 34 35 36 37 38 39 40 41 42 43 44 45 46 47 48 49 50
000
ASUS43 KMPX 220310
RWRMN
WEATHER ROUNDUP FOR MINNESOTA
NATIONAL WEATHER SERVICE TWIN CITIES/CHANHASSEN MN
1000 PM CDT THU AUG 21 2014


NOTE: "FAIR" INDICATES FEW OR NO CLOUDS BELOW 12,000 FEET WITH NO
SIGNIFICANT WEATHER AND/OR OBSTRUCTIONS TO VISIBILITY. N/A MEANS
CURRENT SKY AND/OR WEATHER CONDITIONS ARE NOT AVAILABLE.

MNZ060>063-068>070-220400-
   Twin Cities Metro

CITY           SKY/WX    TMP DP  RH WIND       PRES   REMARKS
TWIN CITIES    PTCLDY    78  74  87 N6        29.82S
ST PAUL        MOCLDY    76  75  97 CALM      29.82R
CRYSTAL        MOCLDY    76  71  85 NW6       29.82S
BLAINE         MOCLDY    75  73  94 N5        29.84S
LAKEVILLE      PTCLDY    77  73  88 CALM      29.83S
EDEN PRAIRIE   CLEAR     77  73  87 N6        29.82R
SOUTH ST PAUL  MOCLDY    79  75  89 CALM      29.82S
LAKE ELMO      MOCLDY    73  73 100 CALM      29.84S
$$
MNZ001>005-007-008-013>017-022>024-027-028-220400-
   Northwest Minnesota

CITY           SKY/WX    TMP DP  RH WIND       PRES   REMARKS
BEMIDJI        CLOUDY    68  65  92 CALM      29.90S
HALLOCK        CLOUDY    70  66  88 CALM      29.88R
ROSEAU         PTCLDY    68  63  83 E7        29.90R
WARROAD        CLOUDY    66  63  88 E7        29.91S
THIEF RVR FALL CLOUDY    72  66  83 S5        29.88S
CROOKSTON      CLOUDY    72  70  94 S5        29.88R
FOSSTON        CLOUDY    66  63  88 CALM      29.89F
DETROIT LAKES  CLOUDY    70  68  94 CALM      29.91R
MOORHEAD       CLEAR     72  72 100 CALM      29.87S
PARK RAPIDS    CLOUDY    69  66  90 E5        29.90R
MAHNOMEN       CLOUDY    69  68  96 SE3       29.88S
$$
MNZ006-009>011-018-025>026-220400-
   North Central Minnesota

CITY           SKY/WX    TMP DP  RH WIND       PRES   REMARKS
BAUDETTE       CLOUDY    67  63  87 E9        29.90S
FLAG ISLAND    CLOUDY    66  64  94 E5        29.90F
INTL FALLS     CLOUDY    65  61  87 E8        29.93R
WASKISH        PTCLDY    68  64  88 CALM      29.90S
BIG FORK       CLOUDY    66  64  94 CALM      29.93S
LONGVILLE      CLOUDY    66  64  94 CALM      29.90S
GRAND RAPIDS   CLOUDY    66  61  82 E5        29.92S
CRANE LAKE     CLOUDY    61  61 100 CALM      29.96S
ORR            CLOUDY    64  57  77 CALM      29.92S
COOK           CLOUDY    64  61  88 E3        29.95R
WALKER         CLOUDY    67  66  94 CALM      29.90S
$$
MNZ012-019>021-037-220400-
   Northeast Minnesota

CITY           SKY/WX    TMP DP  RH WIND       PRES   REMARKS
DULUTH         DRIZZLE   63  60  90 E8        29.92R FOG
ELY            CLOUDY    63  57  82 CALM      29.95S
HIBBING        CLOUDY    67  61  81 E5        29.93R
EVELETH        CLOUDY    63  59  88 NE5       29.95R
DULUTH HARBOR  CLOUDY    63  61  94 NE20      29.92R
TWO HARBORS    DRIZZLE   63  57  82 NE6       29.92R
SILVER BAY     CLEAR     61  61 100 NE7       29.93R
GRAND MARAIS     N/A     65  60  84 E7        29.95S
G MARAIS ARPRT LGT RAIN  59  55  88 NE7       29.99F
$$
MNZ029>031-032-039>041-046>048-054>057-064-220400-
   West Central Minnesota

CITY           SKY/WX    TMP DP  RH WIND       PRES   REMARKS
FERGUS FALLS   CLEAR     72  70  94 CALM      29.87S
WHEATON        CLEAR     70  66  88 CALM      29.89R
MORRIS         CLEAR     72  70  94 CALM      29.86S
ALEXANDRIA     CLEAR     69  67  93 NE3       29.90R
ELBOW LAKE     FAIR      70  69  96 CALM      29.88R
WADENA         CLOUDY    68  66  94 CALM      29.89S FOG
GLENWOOD       CLEAR     70  68  94 CALM      29.89R FOG
APPLETON       FOG       73  70  88 CALM      29.86R VSB 3/4
BENSON         FOG       70  70 100 CALM      29.87R VSB 1/4
ORTONVILLE     CLEAR     73  70  88 CALM      29.87R
MADISON        CLEAR     73  72  94 CALM      29.87R
WILLMAR        FAIR      73  72  94 CALM      29.88S FOG
$$
MNZ033>034-036-042>043-049>051-058-059-220400-
   Central Minnesota

CITY           SKY/WX    TMP DP  RH WIND       PRES   REMARKS
ST CLOUD       PTCLDY    74  71  91 NE3       29.85S
SAUK CENTRE    CLOUDY    71  69  96 CALM      29.89R
PAYNESVILLE      N/A     67  68 100 CALM      29.88R FOG
AITKIN         CLOUDY    66  61  82 NE3       29.89S HAZE
PINE RIVER     CLOUDY    66  66 100 E3        29.94R
BRAINERD       CLOUDY    66  66 100 NE5       29.89S FOG
STAPLES        DRIZZLE   68  66  94 NE3       29.90R
LONG PRAIRIE   CLOUDY    70  68  94 CALM      29.89S
LITTLE FALLS   CLOUDY    70  68  94 CALM      29.88R FOG
LITCHFIELD     CLEAR     73  73 100 CALM      29.87R
BUFFALO        CLEAR     73  69  90 CALM      29.86R
MAPLE LAKE     CLEAR     72  71  97 CALM      29.86S FOG
$$
MNZ037-044-045-052-053-220400-
   East Central Minnesota

CITY           SKY/WX    TMP DP  RH WIND       PRES   REMARKS
PRINCETON      CLOUDY    75  72  88 N3        29.86S
MORA           CLOUDY    66  64  94 CALM      29.88F
CAMBRIDGE      CLOUDY    73  64  73 NW3       29.84S
RUSH CITY      CLOUDY    72  69  92 CALM      29.86S
MOOSE LAKE     LGT RAIN  61  59  94 NE5       29.88F
HINCKLEY       CLOUDY    64  63  94 N7        29.88S
CLOQUET        CLOUDY    63  61  94 E6        29.92R FOG
MCGREGOR       CLOUDY    63  63 100 E3        29.91R
$$
MNZ071>073-080-081-089-090-097-098-220400-
   Southwest Minnesota

CITY           SKY/WX    TMP DP  RH WIND       PRES   REMARKS
MONTEVIDEO     CLEAR     73  70  88 CALM      29.87R
GRANITE FALLS  PTCLDY    73  72  95 NW3       29.88R
CANBY          CLEAR     72  69  91 CALM      29.89R
MARSHALL       CLEAR     72  68  88 CALM      29.88R
REDWOOD FALLS  PTCLDY    77  73  87 N3        29.85R
OLIVIA         CLEAR     73  72  94 CALM      29.86S
PIPESTONE      CLEAR     73  68  83 CALM      29.92R
WINDOM         PTCLDY    72  66  83 CALM      29.89R
WORTHINGTON    CLEAR     73  16  11 CALM      29.91R
JACKSON        PTCLDY    70  64  83 NW3       29.88R
TRACY          CLEAR     74  70  89 CALM      29.89R
SLAYTON        CLEAR     73  70  92 CALM      29.91S
$$
MNZ065>067-074>077-082>085-091>093-220400-
   South Central Minnesota

CITY           SKY/WX    TMP DP  RH WIND       PRES   REMARKS
MANKATO        CLOUDY    81  72  74 W6        29.84S
NEW ULM        CLEAR     77  77 100 N3        29.85S
ST JAMES       PTCLDY    73  66  78 SW3       29.87R
FAIRMONT       MOCLDY    72  64  78 MISG      29.86S
GLENCOE        CLEAR     75  71  88 N3        29.84S
FARIBAULT      PTCLDY    81  72  74 CALM      29.85R
OWATONNA       PTCLDY    79  72  78 S5        29.85S
WASECA         PTCLDY    77  70  78 S3        29.86S
ALBERT LEA     CLOUDY    79  73  83 CALM      29.87R
$$
MNZ078>079-086>088-094>096-220400-
   Southeast Minnesota

CITY           SKY/WX    TMP DP  RH WIND       PRES   REMARKS
ROCHESTER      MOCLDY    75  72  90 S7        29.88R
RED WING       CLOUDY    79  73  83 E3        29.82S
STANTON        PTCLDY    77  72  84 CALM      29.82S
DODGE CENTER   MOCLDY    75  73  94 S7        29.87S
WINONA         PTCLDY    77  70  78 CALM      29.86S
AUSTIN         MOCLDY    75  72  88 S5        29.86S
PRESTON        PTCLDY    73  73 100 S7        29.89S
$$
ABBREVIATIONS USED IN REMARKS
   TC - TEMPERATURES IN CELSIUS
  WCI - WIND CHILL INDEX
   HX - HEAT INDEX
  VSB - VISIBILITY
$$



USA.gov is the U.S. government's official web portal to all federal, state and local government web resources and services.